Location: Newark
(37.8333°N, 119.5000°W)
Time: 06:55:08
(UTC+00:00)

ISS - Visible Passes

Search period start: 16 July 2019 00:00
Search period end: 26 July 2019 00:00
Orbit: 409 x 418 km, 51.6° (Epoch: 16 July)

Date Brightness Start Highest point End Pass type
(mag) Time Alt. Az. Time Alt. Az. Time Alt. Az.
16 Jul -1.9 04:01:15 10° SSE 04:02:42 12° SE 04:04:09 10° ESE visible
16 Jul -3.3 05:35:43 10° WSW 05:39:00 60° NW 05:42:18 10° NE visible
16 Jul -0.4 07:14:38 10° NW 07:16:15 13° NNW 07:17:51 10° N visible
16 Jul -0.5 10:30:10 10° NNW 10:32:06 14° NNE 10:34:01 10° ENE visible
16 Jul -3.7 12:05:55 10° NW 12:09:14 80° NE 12:12:31 10° SE visible
17 Jul -3.9 04:46:24 10° SW 04:49:43 71° SE 04:53:02 10° NE visible
17 Jul -0.8 06:24:24 10° WNW 06:26:42 17° NNW 06:29:01 10° NNE visible
17 Jul -0.2 09:41:29 10° N 09:42:31 11° NNE 09:43:33 10° NE visible
17 Jul -2.5 11:16:43 10° NW 11:19:54 43° NE 11:23:04 10° ESE visible
18 Jul -3.2 03:57:23 10° SSW 04:00:29 36° SE 04:03:35 10° ENE visible
18 Jul -1.4 05:34:23 10° W 05:37:13 25° NNW 05:40:02 10° NNE visible
18 Jul -1.5 10:27:37 10° NNW 10:30:29 26° NNE 10:33:21 10° E visible
18 Jul -3.1 12:04:11 10° WNW 12:07:10 32° SW 12:10:08 10° SSE visible
19 Jul -2.3 04:44:37 10° WSW 04:47:47 39° NW 04:50:57 10° NE visible
19 Jul -0.2 06:24:20 10° NNW 06:25:12 11° NNW 06:26:03 10° N visible
19 Jul -0.9 09:38:36 10° NNW 09:41:00 18° NNE 09:43:23 10° ENE visible
19 Jul -3.9 11:14:39 10° NW 11:17:57 63° SW 11:21:11 10° SE visible
20 Jul -3.5 03:55:05 10° SW 03:58:24 72° NW 04:01:45 10° NE visible
20 Jul -0.5 05:33:45 10° NW 05:35:35 14° NNW 05:37:25 10° NNE visible
20 Jul -0.4 08:49:42 10° NNW 08:51:04 13° NNE 08:51:04 13° NNE visible
20 Jul-0.210:33:18SE10:33:18SE10:23:41NWvisible
21 Jul -0.8 04:43:32 10° WNW 04:46:01 19° NNW 04:48:29 10° NNE visible
21 Jul -0.2 08:01:07 10° N 08:01:37 10° NNE 08:01:37 10° NNE visible
22 Jul -1.4 03:53:33 10° W 03:56:30 28° NNW 03:59:26 10° NNE visible
23 Jul -0.5 04:43:10 10° NW 04:44:23 11° NNW 04:45:36 10° N visible
24 Jul -0.7 03:52:41 10° WNW 03:54:44 15° NNW 03:56:47 10° NNE visible
24 Jul -0.3 07:09:03 10° N 07:09:42 12° N 07:09:42 12° N visible
